COSMOS 2251 DEB, 35073

Orbit data source: Space-Track

COSMOS 2251 DEB, 35073 is space debris in LEO originally from a launch on Wed, 16 Jun 1993 UTC launched from the Plesetsk Missile And Space Complex (PKMTR). The debris from Iridium 33, an American commercial communications satellite, has been tracked extensively since its accidental collision with the defunct Russian satellite Cosmos 2251 in 2009. This event, occurring at high speed in low Earth orbit (LEO), generated thousands of pieces of space debris, significantly increasing the risk of further collisions. The Iridium 33 debris cloud has impacted space traffic management and orbital debris mitigation strategies, making it a subject of ongoing study in space situational awareness.

Loading next visibility...
Identifier
35073, 1993-036AJC
Orbit
LEO
Country
Flag of CISCIS
Related business
Manufacturer
Unknown
Mission
Spacecraft
Bus & Motor
Unknown
Mass
Unknown
Launch date (UTC)
1993-06-16 (32 years ago)
Launch vehicle
Unknown
Launch site
Plesetsk Missile And Space Complex (PKMTR)
Object type
Payload
Rocket body
Debris
Shape & HBR
Unknown shape, 0.1 m
Radar Cross Section
Small (<0.1 m²)

Expand to show TLE details & history
Last TLE update: 3 days ago

TLE from 3 days ago
0 COSMOS 2251 DEB
1 35073U 93036AJC 25305.04473067  .00048199  00000-0  41321-2 0  9999
2 35073  74.0016  55.3514 0012941 177.8039 182.3205 14.97214477668549
Epoch: 2025-11-01T01:04Z
TLE epoch observation values (Epoch: 2025-11-01T01:04:24.729Z)
Latitude
-0.0001°
Longitude
-1.33212°
Altitude
587.183 km
Speed
7.562 km/s
True Right ascension
03h 41m 24s
True Declination
0° 00' 00"
Sunlit
Object was in full shadow at epoch
Visualization orbit readout
Latitude
Unknown
Longitude
Unknown
Altitude
Unknown
Speed
Unknown
Apparent Right ascension
Unknown
Apparent Declination
Unknown
Sunlit
N/A
Visualization observer readout
Local Sidereal Time
06:45:34
Azimuth
Unknown
Elevation
Unknown
Doppler factor
Unknown
Orbital elements
Apogee altitude
582.063 km
Perigee altitude
564.072 km
Semi-major axis
6,951.204 km
Eccentricity
0.00129
Inclination
74.0016°
RAAN
55.3514°
Arg. of periapsis
177.8039°
True anomaly
182.31451°
Mean anomaly
182.3205°
Eccentric anomaly
182.3175°
Mean motion
3.74501 °/min
Orbital period
96.13 mins
BSTAR
0.0041321
Loading maneuver chart data...
Computing Atmospheric mass density...

Documentation

Showing up to 5 results
|